ARIANE 3 DEB, 33538

Orbit data source: Space-Track

ARIANE 3 DEB, 33538 is space debris in HEO originally from a launch on Thu, 08 Sep 1988 UTC launched from the French Guiana (FRGUI). Debris objects in space refer to the collection of defunct objects orbiting the Earth. Examples of debris include non-operational satellites, rocket bodies, and fragments generated from explosions, collisions, or faulty payload assembly.

Loading next visibility...
Identifier
33538, 1988-081N
Orbit
HEO
Country
Flag of FRFR
Related business
Manufacturer
Unknown
Mission
Spacecraft
Bus & Motor
Unknown
Mass
Unknown
Launch date (UTC)
1988-09-08 (38 years ago)
Launch vehicle
Unknown
Launch site
French Guiana (FRGUI)
Object type
Payload
Rocket body
Debris
Shape & HBR
Unknown shape, 1.1 m
Radar Cross Section
Small (<0.1 m²)

Expand to show TLE details & history
Last TLE update: 17 hours ago

TLE from 17 hours ago
0 ARIANE 3 DEB
1 33538U 88081N   26123.72237845 -.00000105  00000-0 -16325-4 0  9998
2 33538   7.7276  10.6772 7193714 275.7987  13.3804  2.24395600169481
Epoch: 2026-05-03T17:20Z
TLE epoch observation values (Epoch: 2026-05-03T17:20:13.498Z)
Latitude
0.00045°
Longitude
-111.25101°
Altitude
4,710.815 km
Speed
7.464 km/s
True Right ascension
00h 41m 42s
True Declination
0° 00' 02"
Sunlit
Object was in daylight at epoch
Visualization orbit readout
Latitude
Unknown
Longitude
Unknown
Altitude
Unknown
Speed
Unknown
Apparent Right ascension
Unknown
Apparent Declination
Unknown
Sunlit
N/A
Visualization observer readout
Local Sidereal Time
17:41:55
Azimuth
Unknown
Elevation
Unknown
Doppler factor
Unknown
Orbital elements
Apogee altitude
36,004.405 km
Perigee altitude
539.364 km
Semi-major axis
24,650.021 km
Eccentricity
0.71937
Inclination
7.7276°
RAAN
10.6772°
Arg. of periapsis
275.7987°
True anomaly
83.59647°
Mean anomaly
13.3804°
Eccentric anomaly
39.71894°
Mean motion
0.56081 °/min
Orbital period
641.93 mins
BSTAR
-0.000016325
Loading maneuver chart data...
Computing Atmospheric mass density...
Loading historical data...
Loading historical data...
Loading historical data...
Loading historical data...
Loading historical data...
Loading historical data...
Loading historical data...

Documentation

Showing up to 5 results
|